SCP
8 8 8 7 5 5 7 8 9 9 9 8 6 4 3 2 2 2 3 3 4 4 4 3 2 2 1 1 1 1 1 1 1 1 1 1 1 1 1 1 1 1 1
6 7 7 6 5 5 6 8 8 8 8 7 6 4 3 2 2 3 3 3 3 3 3 3 2 2 1 1 1 1 1 1 1 1 1 1 1 1 1 1 1 1 1
4 5 5 5 4 5 7 8 8 8 8 7 6 5 4 3 3 3 3 2 2 2 3 2 2 2 2 1 1 1 1 1 1 1 1 1 1 1 1 1 1 1 1
4 4 4 4 5 5 7 8 8 7 7 7 7 6 5 4 3 3 3 2 2 3 3 3 2 2 2 1 1 1 1 1 1 1 1 1 1 1 1 1 1 1 1
4 4 5 6 6 6 7 7 7 7 7 7 6 5 4 3 3 3 3 3 3 3 3 3 2 2 1 1 1 1 1 1 1 1 1 1 1 1 1 1 1 1 1
3 4 6 7 7 7 7 6 6 6 7 7 6 5 4 3 2 2 2 3 3 4 3 2 2 1 1 1 1 1 1 1 1 1 1 1 1 1 1 1 1 1 1
4 5 6 7 7 7 7 7 6 6 6 6 5 4 4 3 2 1 1 2 3 3 2 2 1 1 1 1 1 1 1 1 1 0 1 1 1 1 1 1 1 1 1
5 5 6 6 7 8 8 8 7 6 5 5 4 4 3 2 1 0 0 1 1 2 1 1 1 1 1 1 1 1 1 1 1 0 0 0 0 0 0 0 0 0 0
6 7 6 5 6 8 8 8 7 5 5 4 4 3 3 2 1 0 0 0 1 1 1 1 1 1 1 1 1 1 1 1 1 0 0 0 0 0 0 0 0 0 0
7 6 5 4 4 6 6 6 5 5 5 4 4 4 4 3 1 0 0 0 0 1 1 1 1 1 0 0 1 1 1 1 1 0 0 0 0 0 0 0 0 1 1
6 5 4 3 3 4 4 3 4 4 5 5 5 5 5 4 2 1 0 0 0 1 1 1 1 0 0 0 0 1 1 1 1 1 0 0 0 0 0 0 1 1 1
3 3 3 3 3 3 3 3 3 4 5 5 5 5 5 4 3 1 0 0 0 0 1 1 0 0 0 0 0 0 0 0 1 1 0 0 0 1 1 1 1 1 1
3 4 4 4 4 4 4 4 4 4 4 4 4 4 4 4 4 2 1 0 0 0 0 0 0 0 0 0 0 0 0 0 0 0 0 0 0 1 1 1 1 1 1
4 4 5 5 4 4 4 4 4 4 3 3 2 2 3 3 3 2 1 0 0 0 0 0 0 0 0 0 0 0 0 0 0 0 0 0 0 1 1 1 1 1 1
3 3 4 4 3 3 3 2 2 2 2 1 1 1 2 2 2 1 1 0 0 0 0 0 0 0 0 0 0 0 0 0 0 0 0 0 0 1 1 1 1 1 1
3 3 3 3 3 2 2 1 1 1 0 0 0 0 0 1 1 0 0 0 0 0 0 1 1 1 1 1 1 1 1 0 1 1 1 1 1 1 1 1 1 1 1
2 2 2 2 2 2 1 1 1 1 0 0 0 0 0 0 0 0 0 0 0 0 0 1 1 1 1 1 1 1 1 1 1 1 1 1 1 1 1 1 1 1 1
2 1 1 1 1 1 1 1 1 1 1 1 0 0 0 0 0 0 0 0 0 0 0 1 1 1 1 1 1 1 1 1 1 2 2 1 1 1 1 1 1 1 1
1 1 1 1 1 1 1 1 1 1 1 1 1 0 0 0 0 0 0 0 0 0 0 1 1 1 1 1 1 1 1 1 2 2 2 2 1 1 1 1 1 1 1
1 1 1 1 0 0 0 0 0 0 1 1 1 1 0 0 0 0 0 0 0 0 0 1 1 1 1 1 1 1 1 1 2 2 2 1 1 1 1 1 1 1 0
1 1 0 0 0 0 0 0 0 0 0 0 0 0 0 0 0 0 0 0 0 0 0 1 1 1 1 1 1 1 1 1 2 2 2 1 1 1 1 1 1 0 0
1 0 0 0 0 0 0 0 0 0 0 0 0 0 0 0 1 1 1 0 0 0 1 1 1 1 0 0 1 1 1 1 1 2 2 1 1 1 1 0 0 0 0
0 0 0 0 0 0 0 1 1 0 0 0 0 0 0 0 0 0 1 1 1 0 1 1 1 1 0 0 1 1 1 1 1 2 2 1 1 1 1 0 0 0 0
0 0 0 0 0 0 1 1 1 1 1 1 1 0 0 0 0 0 0 1 1 1 1 1 1 0 0 0 0 0 0 0 1 1 1 1 0 0 0 0 0 0 0
0 1 1 1 1 1 1 1 1 1 1 1 1 1 0 0 0 0 0 0 1 1 1 1 0 0 0 0 0 0 0 0 0 0 0 0 0 0 0 0 0 1 1
1 1 1 1 1 1 1 1 1 1 1 1 1 0 0 0 0 0 0 0 0 1 1 0 0 0 0 0 0 0 0 0 0 0 0 0 0 0 0 0 0 1 1
Wind_Speed
4 3 3 3 3 2 2 2 1 1 2 2 2 2 3 3 3 3 3 4 4 4 4 4 4 3 2 2 2 2 2 2 2 2 1 1 2 2 2 3 3 4 5
4 4 3 3 3 3 2 1 1 2 2 2 2 2 3 3 3 4 4 4 4 4 4 4 4 3 3 2 1 1 1 2 2 2 1 1 2 3 4 4 4 4 4
4 3 3 3 3 2 2 2 2 2 2 2 3 3 3 2 3 3 3 3 3 3 4 4 4 4 4 3 3 3 2 2 2 2 2 2 2 3 3 3 4 3 5
3 3 3 3 3 2 2 2 2 1 2 2 2 2 2 2 2 2 2 2 3 3 3 4 4 4 4 3 4 3 3 2 2 2 2 2 2 2 2 3 3 3 4
3 3 3 3 3 3 2 2 2 1 1 1 1 1 2 1 1 1 1 2 2 3 3 3 3 4 4 3 3 3 3 2 2 2 3 2 2 2 3 3 3 3 3
2 2 2 2 3 3 2 2 1 1 0 0 1 1 1 1 1 1 1 2 2 3 2 2 3 4 4 5 4 4 4 4 3 3 3 3 3 2 2 3 2 2 2
2 2 3 3 3 3 3 2 2 1 1 1 1 1 1 1 2 2 1 2 3 2 2 3 4 3 4 4 4 5 5 7 7 5 4 4 3 2 2 3 2 2 3
2 1 2 2 2 2 2 2 2 2 2 2 1 2 1 1 3 2 2 2 3 3 3 3 3 3 3 3 4 4 4 4 6 6 5 5 4 3 3 3 4 4 4
2 1 2 2 1 2 2 2 2 1 2 2 2 2 2 1 2 3 3 2 2 3 3 3 3 3 4 4 4 4 4 4 5 6 7 6 6 6 4 2 3 3 4
1 1 1 1 1 1 1 1 1 1 2 3 2 2 2 1 2 3 4 3 2 2 2 2 3 3 3 3 3 3 4 4 3 3 5 6 7 7 8 6 5 4 4
1 1 1 1 1 1 1 1 1 2 2 2 2 2 2 2 3 3 4 3 3 2 2 2 1 2 3 4 4 4 5 4 3 4 4 5 5 5 6 6 6 5 4
2 2 2 1 1 0 1 1 1 2 2 2 2 2 2 2 2 3 4 4 3 3 3 2 1 1 3 5 5 5 6 4 3 4 4 4 4 5 5 6 6 6 6
2 2 2 1 1 0 1 1 2 2 2 2 2 2 1 1 1 2 3 3 4 3 2 2 3 3 3 3 5 5 4 3 3 4 5 4 4 4 4 4 5 6 6
2 2 1 1 1 1 0 1 1 1 1 1 1 2 2 1 0 0 1 2 2 2 2 2 3 4 4 4 3 4 4 4 4 4 4 4 4 3 4 4 4 4 4
1 1 1 1 1 1 1 1 1 1 1 1 1 2 2 1 1 1 1 2 2 1 2 3 3 2 3 3 4 4 4 4 4 4 4 4 4 4 4 4 4 4 4
1 1 2 2 1 1 1 1 3 2 2 1 0 1 1 1 0 1 2 3 3 3 2 3 3 4 5 4 4 4 4 4 4 4 4 4 4 4 4 3 4 4 4
1 1 1 1 1 2 2 1 1 2 2 1 2 2 1 2 2 2 3 3 3 2 3 4 4 4 5 5 4 4 4 4 4 4 4 4 4 4 4 4 4 4 4
1 1 1 1 1 2 2 2 2 1 1 1 2 3 3 4 3 3 2 1 2 2 3 4 4 4 4 4 4 4 4 4 3 4 3 3 3 3 3 4 4 4 3
1 1 1 2 1 1 2 2 3 2 2 1 1 1 3 4 3 3 2 2 3 3 3 4 4 4 3 3 3 3 3 3 3 3 3 3 3 3 3 3 3 4 4
1 2 2 2 2 2 2 2 2 2 2 2 1 1 1 1 1 1 2 3 3 3 4 4 3 3 3 3 2 2 2 2 3 3 3 2 2 3 3 4 3 3 3
1 1 2 2 2 2 2 2 2 2 2 2 2 2 2 2 2 2 2 2 3 3 4 4 4 3 3 2 2 2 2 2 3 3 3 3 3 2 2 2 3 3 3
3 2 1 2 2 2 3 2 2 2 2 3 2 1 1 2 2 2 2 2 3 3 3 3 3 3 2 2 2 2 2 2 2 2 3 2 2 2 3 3 3 3 3
4 3 2 2 2 2 3 3 2 2 2 2 3 2 2 3 3 2 3 3 3 3 3 3 3 3 2 2 2 2 2 2 3 3 3 3 3 3 3 3 3 3 3
4 4 4 3 2 3 3 3 3 3 2 2 2 2 2 3 3 3 3 3 3 3 3 3 3 3 3 3 2 2 1 2 3 3 3 4 4 3 3 3 3 4 4
4 3 4 4 3 3 3 3 3 3 3 3 3 2 2 3 3 3 3 3 4 3 3 3 3 3 4 5 4 3 2 1 2 3 4 4 4 5 5 5 4 4 4
4 3 3 3 3 3 3 3 3 3 3 3 3 3 3 3 3 3 3 3 4 3 3 3 4 4 4 3 3 3 2 2 2 3 4 4 4 4 5 4 5 5 4
Wind_Direction
170 173 177 184 185 189 210 195 187 198 195 199 194 194 201 208 205 211 221 209 205 212 209 202 204 208 219 227 215 216 213 205 224 232 188 171 175 184 195 204 200 196 201
167 166 168 172 181 191 194 188 191 201 206 206 201 210 215 215 213 214 216 213 210 209 211 206 211 217 213 224 237 234 218 208 207 224 207 204 217 197 200 210 218 220 208
162 166 164 178 181 180 175 184 201 209 209 204 195 205 214 209 212 214 211 206 216 216 213 210 210 214 216 209 215 227 229 223 201 208 224 211 216 214 203 219 228 229 225
159 165 168 178 175 172 173 174 193 207 208 199 202 211 214 215 214 205 208 208 215 218 216 215 214 209 215 216 220 217 220 219 218 220 227 216 213 211 197 213 232 230 228
166 169 172 175 173 167 164 166 172 208 212 188 211 234 224 208 214 218 248 224 223 229 224 224 219 209 212 215 227 215 214 216 220 220 227 224 219 203 218 226 229 234 233
175 171 159 160 169 165 160 158 149 127 29 18 249 257 269 249 118 128 276 254 235 231 227 232 231 210 202 200 219 226 221 221 224 229 237 233 226 218 226 238 232 240 249
176 171 169 173 170 167 170 164 169 175 205 237 258 242 187 100 143 162 232 266 260 245 232 232 248 233 194 199 214 224 228 228 223 225 233 243 246 239 235 249 254 248 251
165 162 169 177 172 171 172 170 185 194 208 223 232 241 219 183 167 178 217 244 261 257 246 238 240 236 233 217 215 222 225 222 220 220 223 236 242 242 234 237 245 251 250
164 176 182 186 185 179 177 182 191 205 222 223 228 223 226 189 198 192 206 243 246 245 244 250 247 230 227 217 222 225 230 236 232 226 219 227 235 240 240 252 247 248 257
184 185 169 175 185 196 179 179 194 221 223 224 224 223 227 210 210 206 205 237 253 254 243 237 249 237 214 205 229 230 234 241 245 244 236 237 232 233 229 225 233 238 247
42 59 73 121 185 195 156 170 204 243 249 241 226 225 224 215 184 187 196 227 260 269 266 255 243 208 214 218 229 238 238 245 247 242 238 232 228 223 221 216 218 222 237
45 42 45 56 283 178 169 220 227 238 249 249 239 238 228 199 172 187 200 224 262 273 275 286 292 240 251 247 243 244 243 240 244 242 238 238 232 226 222 215 212 218 224
43 40 41 19 356 277 206 231 240 239 243 249 257 262 255 199 161 175 208 238 254 256 280 290 278 263 261 254 248 249 241 231 237 241 242 238 234 235 227 216 212 215 225
49 41 23 7 338 326 294 254 257 266 271 287 293 289 285 250 139 168 254 261 263 264 278 285 269 252 256 257 249 249 241 235 236 245 251 252 249 240 232 217 214 213 224
50 16 340 322 334 353 329 335 314 360 312 267 300 313 306 296 324 335 274 264 265 261 260 253 247 241 241 241 238 235 236 235 236 242 250 250 246 241 234 220 213 215 221
32 347 328 329 343 326 318 357 15 13 49 105 175 276 338 342 253 263 271 267 256 237 242 247 246 246 245 243 242 239 235 237 238 242 243 250 249 241 238 227 216 217 223
356 316 310 321 332 312 303 302 326 1 25 357 281 263 247 271 283 273 275 284 276 240 238 255 252 249 253 250 246 243 241 238 235 239 238 240 244 242 236 232 225 225 226
268 276 294 300 300 300 313 317 309 310 320 327 284 250 248 251 250 261 273 306 279 240 248 255 254 251 252 251 249 247 245 240 233 239 243 245 245 245 245 244 232 226 227
261 280 283 294 295 296 311 308 308 313 316 322 341 303 277 270 259 260 246 259 267 268 266 265 260 262 261 256 255 252 253 246 240 246 258 252 253 252 252 256 248 235 235
239 255 250 271 288 290 290 297 310 324 329 337 338 351 341 295 287 271 250 258 270 280 286 284 283 276 272 270 264 258 261 264 256 247 253 251 251 255 254 256 256 251 241
281 258 251 271 283 298 300 301 311 320 327 333 332 347 338 290 274 271 270 264 269 279 287 287 280 280 276 269 265 257 258 269 270 261 254 249 246 252 257 256 259 261 258
299 287 279 291 301 308 305 298 297 298 302 309 304 283 259 285 295 290 290 285 275 274 279 278 280 286 282 285 281 273 271 273 275 275 276 274 266 265 269 261 255 262 265
301 302 295 286 295 288 286 298 304 298 300 309 317 325 310 307 315 320 315 310 299 288 286 286 286 290 297 297 294 288 289 290 286 278 275 270 269 260 255 262 263 264 262
298 303 304 299 296 297 299 306 306 303 299 304 315 325 322 306 304 310 310 303 303 300 296 295 296 304 316 316 312 309 310 294 292 284 283 278 275 272 266 263 263 259 255
299 308 305 300 298 302 311 318 322 327 324 320 318 320 321 315 308 310 318 317 313 314 325 327 330 332 340 347 347 341 323 298 304 308 291 278 278 280 274 270 272 271 265
306 312 307 305 307 306 306 308 313 322 325 321 317 318 314 305 303 310 313 317 319 318 323 328 338 342 349 351 348 337 314 298 289 287 283 275 268 270 276 274 278 277 272